| time (UTC) | temp C | wind direction | speed KPH | gust KPH | rain 1hr cm | rain 24hr cm | rain mn cm | humidity % | barometer mb |
| 20260504081547 | 11 | 203 | 3.2 | 8.0 | 0.00 | 0.00 | 0.00 | 62 | 1017.7 |
| 20260504050008 | 8 | 307 | 0.0 | 0.0 | 0.00 | 0.00 | 0.00 | 64 | 1018.0 |
| 20260504044505 | 8 | 307 | 0.0 | 0.0 | 0.00 | 0.00 | 0.00 | 64 | 1018.0 |
| 20260504043003 | 8 | 307 | 0.0 | 0.0 | 0.00 | 0.00 | 0.00 | 66 | 1018.1 |
| 20260504041557 | 8 | 307 | 0.0 | 0.0 | 0.00 | 0.00 | 0.00 | 63 | 1018.1 |
| 20260504040054 | 8 | 307 | 0.0 | 0.0 | 0.00 | 0.00 | 0.00 | 63 | 1018.1 |
| 20260504034552 | 7 | 307 | 0.0 | 0.0 | 0.00 | 0.00 | 0.00 | 66 | 1017.9 |
| 20260504033057 | 6 | 307 | 0.0 | 0.0 | 0.00 | 0.00 | 0.00 | 72 | 1017.9 |
| 20260504031559 | 6 | 307 | 0.0 | 0.0 | 0.00 | 0.00 | 0.00 | 76 | 1017.7 |
| 20260504030049 | 6 | 307 | 0.0 | 0.0 | 0.00 | 0.00 | 0.00 | 78 | 1017.6 |
| 20260504024556 | 6 | 307 | 0.0 | 0.0 | 0.00 | 0.00 | 0.00 | 75 | 1017.6 |
| 20260504023045 | 7 | 307 | 0.0 | 0.0 | 0.00 | 0.00 | 0.00 | 73 | 1017.6 |
| 20260504021550 | 7 | 307 | 0.0 | 0.0 | 0.00 | 0.00 | 0.00 | 73 | 1017.6 |
| 20260504020047 | 7 | 307 | 0.0 | 0.0 | 0.00 | 0.00 | 0.00 | 70 | 1017.5 |
| 20260504014538 | 8 | 307 | 0.0 | 0.0 | 0.00 | 0.00 | 0.00 | 70 | 1017.4 |
| 20260504013045 | 8 | 307 | 0.0 | 0.0 | 0.00 | 0.00 | 0.00 | 68 | 1017.3 |
| 20260504011534 | 8 | 307 | 0.0 | 0.0 | 0.00 | 0.00 | 0.00 | 66 | 1017.2 |
| 20260504010033 | 10 | 307 | 0.0 | 0.0 | 0.00 | 0.00 | 0.00 | 64 | 1017.2 |
| 20260504004541 | 10 | 307 | 0.0 | 0.0 | 0.00 | 0.00 | 0.00 | 62 | 1017.3 |
| 20260504003030 | 11 | 307 | 0.0 | 0.0 | 0.00 | 0.00 | 0.00 | 58 | 1017.0 |
| 20260504001528 | 12 | 307 | 0.0 | 0.0 | 0.00 | 0.00 | 0.00 | 53 | 1017.0 |
| 20260504000027 | 13 | 307 | 0.0 | 0.0 | 0.00 | 0.00 | 0.00 | 47 | 1016.8 |
| 20260503234525 | 15 | 307 | 0.0 | 0.0 | 0.00 | 0.00 | 0.00 | 38 | 1016.6 |
| 20260503233029 | 16 | 307 | 0.0 | 1.6 | 0.00 | 0.00 | 0.00 | 36 | 1016.6 |
| 20260503231519 | 16 | 307 | 0.0 | 11.3 | 0.00 | 0.00 | 0.00 | 37 | 1016.4 |
| 20260503230017 | 17 | 312 | 0.0 | 6.4 | 0.00 | 0.00 | 0.00 | 35 | 1016.3 |
| 20260503224515 | 17 | 303 | 8.0 | 19.3 | 0.00 | 0.00 | 0.00 | 32 | 1016.4 |
| 20260503223014 | 16 | 304 | 3.2 | 8.0 | 0.00 | 0.00 | 0.00 | 33 | 1016.5 |
| 20260503221511 | 16 | 344 | 3.2 | 17.7 | 0.00 | 0.00 | 0.00 | 33 | 1016.4 |
| 20260503220009 | 16 | 304 | 3.2 | 12.9 | 0.00 | 0.00 | 0.00 | 34 | 1016.5 |
| 20260503214507 | 17 | 4 | 4.8 | 9.7 | 0.00 | 0.00 | 0.00 | 32 | 1016.5 |
| 20260503213007 | 16 | 316 | 3.2 | 20.9 | 0.00 | 0.00 | 0.00 | 35 | 1016.5 |
| 20260503211606 | 16 | 252 | 6.4 | 20.9 | 0.00 | 0.00 | 0.00 | 34 | 1016.5 |
| 20260503210058 | 16 | 281 | 4.8 | 14.5 | 0.00 | 0.00 | 0.00 | 35 | 1016.6 |
| 20260503204556 | 16 | 9 | 6.4 | 16.1 | 0.00 | 0.00 | 0.00 | 35 | 1016.6 |
| 20260503203154 | 15 | 320 | 6.4 | 25.7 | 0.00 | 0.00 | 0.00 | 36 | 1016.7 |
| 20260503201551 | 15 | 276 | 4.8 | 16.1 | 0.00 | 0.00 | 0.00 | 36 | 1016.9 |
| 20260503200147 | 16 | 251 | 4.8 | 19.3 | 0.00 | 0.00 | 0.00 | 36 | 1017.1 |
| 20260503194549 | 15 | 287 | 3.2 | 19.3 | 0.00 | 0.00 | 0.00 | 38 | 1017.1 |
| 20260503193043 | 15 | 299 | 9.7 | 20.9 | 0.00 | 0.00 | 0.00 | 38 | 1017.2 |
| 20260503191540 | 15 | 215 | 6.4 | 24.1 | 0.00 | 0.00 | 0.00 | 38 | 1017.5 |
| 20260503190041 | 15 | 325 | 3.2 | 20.9 | 0.00 | 0.00 | 0.00 | 38 | 1017.6 |
| 20260503184534 | 15 | 353 | 4.8 | 17.7 | 0.00 | 0.00 | 0.00 | 39 | 1017.7 |
| 20260503183029 | 15 | 351 | 9.7 | 22.5 | 0.00 | 0.00 | 0.00 | 38 | 1018.1 |
| 20260503181526 | 14 | 306 | 1.6 | 22.5 | 0.00 | 0.00 | 0.00 | 40 | 1017.9 |
| 20260503180124 | 14 | 226 | 3.2 | 19.3 | 0.00 | 0.00 | 0.00 | 41 | 1018.1 |
| 20260503174526 | 13 | 37 | 11.3 | 24.1 | 0.00 | 0.00 | 0.00 | 38 | 1018.3 |
| 20260503173021 | 14 | 293 | 4.8 | 14.5 | 0.00 | 0.00 | 0.00 | 38 | 1018.3 |
| 20260503171516 | 13 | 285 | 9.7 | 24.1 | 0.00 | 0.00 | 0.00 | 37 | 1018.5 |
| 20260503160112 | 12 | 270 | 8.0 | 22.5 | 0.00 | 0.00 | 0.00 | 41 | 1018.9 |